Holland, MI

11:01 PM EST on November 17, 2017 (GMT -0500)
Tulip City

Weather History for KBIV - January, 2014

Change the Weather History Date:

Sunday, January 12, 2014

  Actual Average Record
Temperature  
Mean Temperature 38 °F 26 °F  
Max Temperature 44 °F 32 °F 59 °F (2005)
Min Temperature 31 °F 20 °F 1 °F (1977)
Degree Days  
Heating Degree Days 27 39  
Month to date heating degree days 552 459  
Since 1 July heating degree days 2968 2727  
Cooling Degree Days 0 0  
Month to date cooling degree days 0 0  
Year to date cooling degree days 0 0  
Moisture  
Dew Point 27 °F    
Average Humidity 70    
Maximum Humidity 85    
Minimum Humidity 54    
Precipitation  
Precipitation 0.00 in 0.06 in 1.95 in (1960)
Month to date precipitation 1.33 0.82  
Year to date precipitation 1.33 0.82  
Sea Level Pressure  
Sea Level Pressure 29.77 in    
Wind  
Wind Speed 15 mph (SSW)    
Max Wind Speed 24 mph    
Max Gust Speed 33 mph    
Visibility 10 miles    
Events      
T = Trace of Precipitation, MM = Missing Value Source: NWS Daily Summary

Daily Weather History Graph

Daily Weather History Graph

Search for Another Location

Airport or City:

Trip Planner

Search our weather history database for the weather conditions in past years. The results will help you decide how hot, cold, wet, or windy it might be!

Date:

Astronomy

Jan. 12, 2014 Rise Set
Actual Time 8:13 AM EST 5:32 PM EST
Civil Twilight 7:41 AM EST 6:04 PM EST
Nautical Twilight 7:06 AM EST 6:39 PM EST
Astronomical Twilight 6:32 AM EST 7:13 PM EST
Moon 3:00 PM EST (1/12) 5:10 AM EST (1/12)
Length of Visible Light 10h 22m
Length of Day
9h 19m
Waxing Gibbous, 89% of the Moon is Illuminated
Jan 12
Waxing Gibbous
Jan 15
Full
Jan 24
Last Quarter
Jan 30
New
Feb 6
First Quarter

Hourly Weather History & Observations

Time (EST) Temp. Windchill Dew Point Humidity Pressure Visibility Wind Dir Wind Speed Gust Speed Precip Events Conditions
12:53 AM 34.0 °F 25.0 °F 28.0 °F 79% 29.72 in 10.0 mi West 12.7 mph - N/A   Overcast
1:53 AM 34.0 °F 24.2 °F 28.0 °F 79% 29.74 in 10.0 mi West 15.0 mph 21.9 mph N/A   Overcast
2:04 AM 33.1 °F 22.6 °F 28.0 °F 82% 29.72 in 10.0 mi West 16.1 mph 20.7 mph N/A   Overcast
2:31 AM 33.1 °F 23.0 °F 27.0 °F 78% 29.74 in 10.0 mi West 15.0 mph - N/A   Overcast
2:53 AM 33.1 °F 24.9 °F 27.0 °F 78% 29.77 in 10.0 mi West 10.4 mph - N/A   Overcast
3:53 AM 33.1 °F 24.9 °F 26.1 °F 75% 29.81 in 10.0 mi West 10.4 mph 19.6 mph N/A   Overcast
4:53 AM 33.1 °F 24.4 °F 27.0 °F 78% 29.82 in 10.0 mi West 11.5 mph - N/A   Overcast
5:53 AM 32.0 °F 22.1 °F 27.0 °F 82% 29.83 in 10.0 mi West 13.8 mph - N/A   Overcast
6:53 AM 32.0 °F 22.5 °F 27.0 °F 82% 29.84 in 10.0 mi WSW 12.7 mph - N/A   Overcast
7:35 AM 32.0 °F 22.1 °F 27.0 °F 82% 29.82 in 10.0 mi SW 13.8 mph - N/A   Overcast
7:53 AM 32.0 °F 22.5 °F 27.0 °F 82% 29.85 in 10.0 mi SW 12.7 mph - N/A   Overcast
8:53 AM 32.0 °F 21.6 °F 27.0 °F 82% 29.87 in 9.0 mi SW 15.0 mph - N/A   Overcast
9:53 AM 30.9 °F 21.7 °F 27.0 °F 85% 29.90 in 8.0 mi SSW 11.5 mph 24.2 mph N/A   Overcast
10:53 AM 32.0 °F 23.0 °F 27.0 °F 82% 29.89 in 8.0 mi South 11.5 mph - N/A   Scattered Clouds
11:53 AM 33.1 °F 23.9 °F 27.0 °F 78% 29.87 in 10.0 mi South 12.7 mph - N/A   Clear
12:53 PM 37.0 °F 27.4 °F 26.1 °F 65% 29.82 in 10.0 mi South 17.3 mph - N/A   Clear
1:53 PM 39.0 °F 30.6 °F 27.0 °F 62% 29.78 in 10.0 mi South 15.0 mph - N/A   Clear
2:53 PM 39.0 °F 29.6 °F 26.1 °F 60% 29.75 in 10.0 mi South 18.4 mph 25.3 mph N/A   Clear
3:53 PM 39.0 °F 29.9 °F 25.0 °F 57% 29.73 in 10.0 mi SSE 17.3 mph - N/A   Clear
4:53 PM 39.0 °F 30.3 °F 25.0 °F 57% 29.69 in 10.0 mi SSE 16.1 mph - N/A   Clear
5:53 PM 39.0 °F 29.9 °F 25.0 °F 57% 29.66 in 10.0 mi South 17.3 mph 27.6 mph N/A   Clear
6:53 PM 39.0 °F 29.0 °F 26.1 °F 60% 29.68 in 10.0 mi South 20.7 mph 26.5 mph N/A   Clear
7:53 PM 39.9 °F 30.2 °F 27.0 °F 60% 29.69 in 10.0 mi South 20.7 mph 26.5 mph N/A   Clear
8:53 PM 39.0 °F 31.0 °F 28.0 °F 65% 29.71 in 10.0 mi South 13.8 mph - N/A   Clear
9:53 PM 37.9 °F 30.0 °F 28.0 °F 68% 29.70 in 10.0 mi South 12.7 mph - N/A   Clear
10:53 PM 37.0 °F 30.4 °F 28.0 °F 70% 29.69 in 10.0 mi South 9.2 mph - N/A   Clear
11:53 PM 44.1 °F 35.7 °F 28.9 °F 55% 29.66 in 10.0 mi SSW 20.7 mph 31.1 mph N/A   Clear